Location: Engle Ridge Observatory
(44.8122°N, 85.4398°W)
Time: 06:05:59
(UTC-04:00)

Daily predictions for brighter satellites

Satellite Brightness Start Highest point End
(mag) Time Altitude Azimuth Time Altitude Azimuth Time Altitude Azimuth
Resurs 01 Rocket 4.4 21:42:26 10° SW 21:45:16 17° W 21:48:08 10° NW
CENTAUR R/B 3.4 21:40:05 10° NW 21:47:51 70° WSW 21:56:05 10° SSE
Cosmos 2056 Rocket 3.5 21:44:11 10° S 21:49:15 60° ESE 21:54:19 10° NNE
Cosmos 1174 4.5 21:46:18 10° NNW 21:49:23 30° NE 21:52:08 10° ESE
Cosmos 1371 Rocket 4.1 21:46:09 10° SSW 21:51:28 85° ESE 21:56:47 10° NNE
Cosmos 1674 Rocket 3.7 21:48:37 10° N 21:53:04 62° E 21:57:26 10° SSE
Sich 1 Rocket 4.1 21:51:11 10° SSE 21:55:30 43° E 21:59:51 10° NNE
CZ-4 SHROUD 4.3 21:59:38 10° SE 22:02:21 29° ENE 22:05:06 10° N
COSMOS 2406 3.5 21:57:03 10° NNW 22:02:47 70° WSW 22:08:27 10° SSE
ATLAS 5 CENTAUR R/B 2.8 21:57:48 10° NW 22:03:44 63° WSW 22:10:04 10° SSE
NOSS 2-2 (D) 3.5 22:00:14 10° SSW 22:04:21 79° SE 22:09:15 10° NE
SL-27 R/B 2.6 22:01:23 10° NNW 22:05:04 83° WSW 22:08:40 10° SSE
ARGOS 4.1 22:01:18 10° SE 22:05:58 32° ENE 22:10:40 10° N
COS B Rocket 3.8 22:02:05 10° NNE 22:06:08 43° E 22:09:49 10° SSE
Okean 3 4.2 22:07:27 10° N 22:11:27 37° ENE 22:14:59 12° SE
COSMOS 2487 3.6 22:09:55 10° N 22:13:13 32° ENE 22:15:53 14° ESE
PSLV R/B 3.5 22:12:35 13° SE 22:15:01 44° ENE 22:17:52 10° N
Cosmos 1238 Rocket 2.9 22:14:31 10° N 22:17:29 39° E 22:20:11 14° SSE
EO 1 Delta rocket 4.4 22:11:41 10° NNE 22:18:17 72° E 22:23:29 10° S
NOSS 2-2 (C) 3.8 22:14:56 10° SW 22:19:04 77° NW 22:24:02 10° NE
Coronas F rocket 3.4 22:17:00 10° SW 22:19:22 28° WNW 22:21:44 10° NNW
Cosmos 2278 Rocket 2.8 22:14:35 10° S 22:19:43 37° ESE 22:24:53 10° NE
Cosmos 1833 Rocket 4.3 22:15:45 10° N 22:20:01 22° NE 22:24:17 10° E
Cosmos 1975 Rocket 3.6 22:17:56 10° N 22:22:02 40° ENE 22:25:16 15° SE
SPOT 5 3.1 22:17:58 10° SSE 22:23:13 83° ENE 22:28:38 10° NNW
Cosmos 1844 3.8 22:17:37 10° S 22:23:15 59° ESE 22:28:58 10° NNE
Cosmos 1825 2.5 22:21:27 10° SSE 22:25:07 46° E 22:28:48 10° NNE
ISS -1.9 22:23:05 10° S 22:25:25 18° SE 22:25:57 18° ESE
Envisat 3.3 22:21:15 10° S 22:26:18 68° WSW 22:31:23 10° NNW
Cosmos 1844 Rocket 2.7 22:22:17 10° SSW 22:27:57 85° ESE 22:33:38 10° NNE
Terra 3.4 22:25:43 12° ESE 22:28:44 21° ENE 22:32:14 10° NNE
Cosmos 1862 3.4 22:24:50 10° S 22:28:52 62° E 22:32:55 10° NNE
deb Chang Zheng 4 3.8 22:25:40 10° N 22:30:04 75° WNW 22:34:29 10° SSW
ERBS 4.4 22:28:21 10° WNW 22:30:59 20° SW 22:33:35 10° S
YAOGAN 6 2.5 22:29:22 16° SSE 22:32:06 68° ENE 22:35:36 10° N
Cosmos 1408 2.6 22:29:47 10° S 22:33:19 58° E 22:36:56 10° NNE
Cosmos 1908 Rocket 3.5 22:29:00 10° S 22:33:23 84° E 22:37:51 10° N
Cosmos 2154 Rocket 4.0 22:28:37 10° S 22:34:50 82° E 22:41:04 10° N
TIMED 4.4 22:31:25 10° SSW 22:35:46 71° ESE 22:40:08 10° NNE
Cosmos 1378 Rocket 3.5 22:32:25 10° N 22:36:46 89° E 22:40:34 13° S
Cosmos 2082 Rocket 3.3 22:32:06 10° N 22:37:15 33° NE 22:41:15 15° ESE
Cosmos 1733 Rocket 4.5 22:33:26 10° SSW 22:37:35 40° WNW 22:41:45 10° N
H-2A R/B 3.1 22:34:39 16° ESE 22:38:14 32° ENE 22:42:55 10° N
MetOp-A 4.2 22:34:31 11° SSE 22:39:41 84° WSW 22:45:05 10° NNW
USA 245 3.0 22:40:06 22° SSE 22:42:00 65° ENE 22:45:53 10° N
Cosmos 1242 Rocket 3.0 22:38:29 10° N 22:42:01 46° ENE 22:43:57 23° SE
SL-8 R/B 3.8 22:38:19 10° WSW 22:43:09 83° NNW 22:47:59 10° ENE
Cosmos 407 Rocket 4.2 22:38:20 10° NNW 22:43:27 53° WSW 22:48:30 10° S
Cosmos 614 Rocket 4.4 22:44:35 10° N 22:49:31 46° ENE 22:52:31 22° SE
Meteor 1-27 Rocket 4.1 22:44:01 10° NNW 22:49:32 62° W 22:54:57 10° S
Cosmos 2084 3.2 22:46:35 10° SSW 22:50:21 55° SE 22:54:07 10° NE
CZ-4C R/B 4.2 22:49:12 23° ESE 22:51:01 36° ENE 22:54:46 10° N
Cosmos 1452 Rocket 3.5 22:47:06 10° SSW 22:52:21 88° WNW 22:57:41 10° NNE
Cosmos 2297 4.4 22:48:47 17° SSE 22:52:25 35° ESE 22:57:33 10° NE
SPOT 1/Viking Rocket 3.5 22:49:14 17° SSE 22:53:17 88° ENE 22:58:33 10° NNW
SL-08 RB Rocket 3.8 22:51:08 22° SSE 22:54:02 65° ENE 22:58:39 10° N
Cosmos 1140 Rocket 3.4 22:49:50 10° NNW 22:55:00 78° ENE 22:58:17 23° SSE
Cosmos 489 Rocket 4.4 22:50:04 10° NNW 22:56:19 87° ENE 23:00:44 20° SSE
Cosmos 1606 4.1 22:56:15 10° NNW 22:59:54 36° W 23:03:31 10° SSW
H-2A R/B 3.9 22:59:38 10° SSW 23:03:15 26° W 23:06:50 10° NW
NOAA 11 4.2 22:59:37 19° SSE 23:03:37 89° W 23:09:09 10° NNW
Cosmos 2366 rocket 4.3 23:01:48 21° SSE 23:05:45 49° E 23:11:50 10° NNE
USA 234 3.6 23:00:49 10° ENE 23:06:55 40° SE 23:12:58 10° SSW
CZ-4B R/B 3.4 23:03:33 10° NNE 23:08:35 88° ESE 23:13:01 12° SSW
CZ-4 R/B 3.7 23:10:21 10° NNE 23:15:04 78° ESE 23:18:11 21° S
Cosmos 1184 Rocket 4.1 23:18:33 13° SW 23:21:16 39° WNW 23:24:27 10° N
BREEZE-M DEB 3.9 23:17:32 10° WSW 23:21:20 89° SSE 23:22:16 39° ENE
Okean 1 Rocket 4.4 23:22:47 23° E 23:23:09 23° E 23:26:41 10° NE
Cosmos 1850 Rocket 4.1 23:18:27 10° NNW 23:23:47 80° WSW 23:26:29 30° SSE
BREEZE-M DEB (TANK) 3.1 23:23:31 10° WNW 23:25:31 33° N 23:29:00 10° ENE
Okean 2 Rocket 3.7 23:22:51 13° SSW 23:26:42 54° WNW 23:31:02 10° N
DMSP B5D2-2 4.2 23:22:05 10° NNE 23:27:12 53° E 23:29:16 33° SSE
Okean 1 4.1 23:26:10 10° N 23:29:57 36° ENE 23:30:38 34° E
Cosmos 2218 Rocket 4.0 23:25:46 20° S 23:30:28 86° E 23:36:54 10° N
IGS 5A 3.4 23:32:35 45° SE 23:33:46 72° ENE 23:37:56 10° N
Meteor 1-20 Rocket 4.4 23:33:04 34° SSE 23:35:09 51° E 23:40:30 10° NNE
DELTA 2 DEB (DPAF) 4.3 23:36:15 34° S 23:38:05 66° WSW 23:42:32 10° NNW
Meteor 1-25 Rocket 4.3 23:39:51 32° S 23:42:37 70° E 23:48:26 10° NNE
AVUM R/B 4.0 23:39:20 10° NNW 23:42:45 45° ENE 23:43:00 44° ENE
Cosmos 1741 Rocket 4.4 23:37:46 10° NNW 23:42:54 56° WSW 23:45:10 31° S
Cosmos 1727 Rocket 3.9 23:38:50 10° N 23:45:03 88° W 23:48:04 33° S
ARGOS 4.2 23:42:39 18° SSW 23:46:06 38° W 23:51:05 10° NNW
Landsat 7 4.4 23:48:20 30° SSW 23:50:23 50° W 23:55:02 10° NNW
Meteor 1-18 Rocket 4.3 23:45:20 10° NNW 23:51:15 80° W 23:53:53 35° S
